TimeCDT,TemperatureF,Dew PointF,Humidity,Sea Level PressureIn,VisibilityMPH,Wind Direction,Wind SpeedMPH,Gust SpeedMPH,PrecipitationIn,Events,Conditions,WindDirDegrees,DateUTC
12:52 AM,36.0,27.0,70,30.33,10.0,Calm,Calm,-,N/A,,Clear,0,2012-10-07 05:52:00
1:52 AM,34.0,25.0,70,30.33,10.0,Calm,Calm,-,N/A,,Clear,0,2012-10-07 06:52:00
2:52 AM,32.0,21.9,66,30.33,10.0,West,3.5,-,N/A,,Clear,270,2012-10-07 07:52:00
3:52 AM,32.0,24.1,73,30.31,10.0,Calm,Calm,-,N/A,,Clear,0,2012-10-07 08:52:00
4:52 AM,30.0,23.0,75,30.30,10.0,NE,3.5,-,N/A,,Clear,40,2012-10-07 09:52:00
5:52 AM,30.9,24.1,76,30.30,10.0,Calm,Calm,-,N/A,,Clear,0,2012-10-07 10:52:00
6:52 AM,30.0,25.0,82,30.30,10.0,Calm,Calm,-,N/A,,Clear,0,2012-10-07 11:52:00
7:52 AM,28.9,25.0,85,30.31,10.0,SE,3.5,-,N/A,,Clear,140,2012-10-07 12:52:00
8:52 AM,35.1,26.1,70,30.31,10.0,Calm,Calm,-,N/A,,Clear,0,2012-10-07 13:52:00
9:52 AM,39.0,26.1,60,30.31,10.0,South,3.5,-,N/A,,Clear,190,2012-10-07 14:52:00
10:52 AM,45.0,25.0,46,30.28,10.0,SW,6.9,-,N/A,,Clear,220,2012-10-07 15:52:00
11:52 AM,48.9,24.1,38,30.25,10.0,SSW,8.1,-,N/A,,Clear,200,2012-10-07 16:52:00
12:52 PM,54.0,25.0,33,30.22,10.0,WSW,12.7,19.6,N/A,,Partly Cloudy,250,2012-10-07 17:52:00
1:52 PM,55.0,28.0,35,30.18,10.0,WSW,10.4,16.1,N/A,,Partly Cloudy,240,2012-10-07 18:52:00
2:52 PM,57.0,24.1,28,30.14,10.0,WSW,11.5,-,N/A,,Scattered Clouds,250,2012-10-07 19:52:00
3:52 PM,57.0,23.0,27,30.11,10.0,SW,13.8,19.6,N/A,,Scattered Clouds,220,2012-10-07 20:52:00
4:52 PM,57.0,23.0,27,30.08,10.0,SW,10.4,27.6,N/A,,Scattered Clouds,230,2012-10-07 21:52:00
5:52 PM,55.9,24.1,29,30.08,10.0,SW,16.1,21.9,N/A,,Partly Cloudy,220,2012-10-07 22:52:00
6:52 PM,53.6,24.8,33,30.07,10.0,SW,10.4,-,N/A,,Scattered Clouds,220,2012-10-07 23:52:00
7:52 PM,52.0,26.1,37,30.08,10.0,SSW,8.1,-,N/A,,Clear,200,2012-10-08 00:52:00
8:52 PM,48.9,27.0,43,30.08,10.0,South,8.1,-,N/A,,Clear,180,2012-10-08 01:52:00
9:52 PM,48.9,27.0,43,30.07,10.0,South,11.5,-,N/A,,Clear,170,2012-10-08 02:52:00
10:52 PM,46.9,28.0,48,30.06,10.0,SSE,10.4,-,N/A,,Clear,160,2012-10-08 03:52:00
11:52 PM,46.0,28.9,51,30.05,10.0,South,10.4,-,N/A,,Clear,180,2012-10-08 04:52:00